[[{"header":{"parameterUnit":"m.s-1","parameterCategory":2,"la1":30.2991,"la2":30.254,"lo1":-89.0895,"lo2":-89.0444,"dy":0.0017,"dx":0.0017,"nx":28,"ny":28,"refTime":"2024-12-16T09:00:00:Z","depth":"0","parameterNumber":2,"parameterNumberName":"U-component_of_CURRENTS"},"data":[0,0,0,0,0,0,0,0,0,0,0,0,0,0,0,0,0,0,0,0,0,0,0,0,0,0,0,0,0,0,0,0,0,0,0,0,0,0,0,0,0,0,0,0,0,0,0,0,0,0,0,0,0,0,0,0,0,0,0.3159,0.3159,0,0.311,0.3109,0.3108,0.3073,0.3074,0.3074,0.3074,0.2983,0.298,0.2978,0,0,0,0,0,0,0,0,0,0,0,0,0,0.3226,0.3225,0.3159,0.3159,0.3159,0.3111,0.3109,0.3108,0.3073,0.3074,0.3074,0.3074,0.2984,0.2981,0.2977,0,0,0,0,0,0,0,0,0,0,0,0,0,0.3184,0.3224,0.3159,0.314,0.3138,0.3111,0.3109,0.3108,0.3073,0.3074,0.3074,0.3074,0.2985,0.2981,0.2977,0.2945,0,0,0.2965,0.2963,0,0,0,0,0,0,0,0,0.3186,0.3181,0.3143,0.3141,0.3139,0.3103,0.31,0.3053,0.3073,0.3092,0.3074,0.3075,0.3023,0.3016,0.2998,0.2941,0.2937,0.2964,0.2962,0.296,0.2959,0,0,0,0,0,0,0,0.3189,0.3183,0.3134,0.3143,0.3141,0.3136,0.313,0.3091,0.3051,0.309,0.3089,0.3093,0.3021,0.3002,0.2996,0.2936,0.2965,0.2961,0.2959,0.2957,0.2932,0.2934,0,0,0,0,0,0,0.3206,0.3185,0.3136,0.3133,0.3171,0.3135,0.3127,0.311,0.3052,0.3045,0.3092,0.3091,0.3009,0.3,0.2992,0.3013,0.296,0.2957,0.2954,0.2931,0.2933,0.2935,0,0,0,0,0,0,0.3207,0.3201,0.3138,0.3164,0.3157,0.3134,0.3114,0.3109,0.3103,0.3055,0.3047,0.3094,0.3009,0.2998,0.2992,0.3007,0.2955,0.2951,0.2929,0.2931,0.2934,0.3015,0,0,0,0,0,0,0.3209,0.3201,0.3195,0.3165,0.3156,0.3144,0.3114,0.3108,0.3106,0.3105,0.3053,0.3045,0.3008,0.2998,0.2988,0.3001,0.2948,0.2926,0.293,0.2933,0.301,0.302,0.3028,0,0,0,0,0,0.3211,0.3202,0.3194,0.3189,0.3147,0.3145,0.314,0.3122,0.3107,0.3114,0.309,0.3047,0.3012,0.2996,0.2984,0.2996,0.2925,0.2929,0.2933,0.3006,0.3018,0.3028,0,0,0,0,0,0,0.3203,0.3197,0.3188,0.317,0.3171,0.3142,0.3142,0.3131,0.3114,0.3108,0.3062,0.3053,0.3057,0.302,0.3004,0.3003,0.2963,0.2965,0.3023,0.3034,0.3043,0.306,0.2945,0,0,0,0,0,0.3205,0.3208,0.3198,0.3184,0.3187,0.3166,0.3162,0.3153,0.3137,0.3129,0.3097,0.307,0.3059,0.3044,0.3024,0.3012,0.3024,0.3016,0.3025,0.3033,0.3042,0.3092,0.3107,0.2947,0.2947,0.2947,0,0,0.3194,0.3194,0.3191,0.3186,0.3177,0.3196,0.3163,0.3164,0.3181,0.312,0.3125,0.3101,0.3068,0.3068,0.3065,0.3038,0.3089,0.3038,0.3044,0.3049,0.3098,0.3114,0.3128,0.295,0.295,0.2949,0,0,0.3199,0.3178,0.3198,0.3208,0.3218,0.3213,0.3223,0.3209,0.3206,0.3209,0.3182,0.3178,0.3138,0.313,0.3118,0.3165,0.3144,0.3153,0.3198,0.3248,0.3262,0.3274,0.3329,0.3346,0.3148,0.3148,0.3148,0,0.3201,0.32,0.3202,0.3231,0.3235,0.3231,0.325,0.3258,0.3245,0.3239,0.3226,0.32,0.3172,0.3185,0.3207,0.3185,0.3213,0.3155,0.3261,0.3273,0.3284,0.3338,0.3355,0.3152,0.3152,0.3151,0.3151,0,0.3228,0.323,0.324,0.3279,0.329,0.3299,0.3318,0.3328,0.3318,0.3313,0.3321,0.3297,0.3277,0.3275,0.3252,0.3309,0.3306,0.3275,0.3233,0.3305,0.3357,0.3374,0.3158,0.3157,0.3156,0.3154,0,0,0.3221,0.3257,0.3259,0.3264,0.3308,0.3307,0.3355,0.3373,0.3386,0.339,0.3403,0.3401,0.3378,0.3367,0.3343,0.3385,0.3492,0.3366,0.3366,0.3423,0.3619,0.351,0.3516,0.3482,0.3485,0.3487,0.3632,0,0.324,0.3277,0.3301,0.3325,0.333,0.3351,0.3388,0.3408,0.3419,0.3439,0.3438,0.3443,0.3419,0.3407,0.3452,0.348,0.3535,0.3456,0.3539,0.3542,0.3437,0.3531,0.3274,0.3371,0.3648,0.365,0.3652,0,0.3251,0.327,0.3292,0.3309,0.3316,0.3345,0.3368,0.3405,0.3454,0.346,0.3483,0.3484,0.3544,0.3509,0.3624,0.3577,0.3611,0.3638,0.3643,0.352,0.3462,0.334,0.339,0.3244,0.3677,0.3675,0.3673,0,0.3201,0.3248,0.3251,0.3263,0.3307,0.3318,0.3347,0.3395,0.3426,0.348,0.3508,0.3562,0.3597,0.3662,0.3722,0.3682,0.3858,0.3799,0.3741,0.3735,0.3519,0.3487,0.3431,0.3894,0.3893,0.3893,0.3892,0,0.3186,0.3187,0.3224,0.3224,0.3238,0.3275,0.3304,0.3345,0.3414,0.3459,0.3512,0.3565,0.3642,0.3737,0.3775,0.3823,0.3905,0.3777,0.3769,0.3541,0.351,0.3373,0.3367,0.3898,0.3897,0.3896,0.3895,0,0.3131,0.3156,0.316,0.3198,0.3211,0.3218,0.3292,0.3315,0.3392,0.3464,0.3489,0.3605,0.3717,0.3802,0.3919,0.3879,0.3801,0.3932,0.3663,0.3618,0.3352,0.3361,0.3266,0.3161,0.3867,0.3865,0.3864,0,0.3102,0.3098,0.3132,0.3139,0.316,0.3186,0.3209,0.3289,0.3332,0.3483,0.3519,0.3653,0.3726,0.3867,0.3812,0.3855,0.377,0.3636,0.3487,0.3322,0.3329,0.3241,0.3153,0.3257,0.3251,0.3246,0.3242,0,0.3052,0.3068,0.3083,0.3102,0.3117,0.3138,0.3186,0.3225,0.3329,0.3391,0.3503,0.3579,0.3671,0.3586,0.362,0.359,0.339,0.3526,0.342,0.2908,0.2746,0.2642,0.3202,0.3195,0.32,0.3203,0.3206,0.3208,0.3017,0.3023,0.3045,0.3062,0.3077,0.3086,0.3069,0.3135,0.3186,0.3236,0.3388,0.3391,0.3337,0.3312,0.3291,0.2971,0.3088,0.28,0.2853,0.2799,0.2591,0.3056,0.2988,0.2992,0.2995,0.2997,0.2999,0,0.2972,0.299,0.3002,0.3007,0.2989,0.3015,0.3039,0.2994,0.3001,0.3055,0.3095,0.2937,0.2817,0.2743,0.2458,0.2306,0.218,0.2227,0.2025,0.1996,0.2441,0.2299,0.1996,0.1996,0.1996,0.1996,0.1996,0.1996,0.2945,0.2944,0.2955,0.2912,0.2903,0.2809,0.2788,0.2742,0.2737,0.2601,0.2465,0.2459,0.2364,0.2147,0.1869,0.1796,0.1662,0.1561,0.1667,0.1943,0.1998,0.2051,0.1909,0.153,0.1529,0.101,0.1006,0.1003]},{"header":{"parameterUnit":"m.s-1","parameterCategory":2,"la1":30.2991,"la2":30.254,"lo1":-89.0895,"lo2":-89.0444,"dy":0.0017,"dx":0.0017,"nx":28,"ny":28,"refTime":"2024-12-16T09:00:00:Z","depth":"0","parameterNumber":3,"parameterNumberName":"V-component_of_CURRENTS"},"data":[0,0,0,0,0,0,0,0,0,0,0,0,0,0,0,0,0,0,0,0,0,0,0,0,0,0,0,0,0,0,0,0,0,0,0,0,0,0,0,0,0,0,0,0,0,0,0,0,0,0,0,0,0,0,0,0,0,0,-0.0462,-0.0462,0,-0.0481,-0.0482,-0.0482,-0.0471,-0.047,-0.0469,-0.0469,-0.0445,-0.0445,-0.0445,0,0,0,0,0,0,0,0,0,0,0,0,0,-0.0424,-0.0425,-0.0462,-0.0462,-0.0462,-0.0481,-0.0482,-0.0482,-0.0471,-0.047,-0.0469,-0.0468,-0.0445,-0.0445,-0.0445,0,0,0,0,0,0,0,0,0,0,0,0,0,-0.0443,-0.0425,-0.0462,-0.0458,-0.0458,-0.0481,-0.0482,-0.0482,-0.0471,-0.047,-0.0469,-0.0468,-0.0445,-0.0445,-0.0445,-0.0464,0,0,-0.0445,-0.0445,0,0,0,0,0,0,0,0,-0.0442,-0.0444,-0.0458,-0.0458,-0.0458,-0.0472,-0.046,-0.0474,-0.0471,-0.0467,-0.0469,-0.0468,-0.045,-0.0449,-0.0457,-0.0463,-0.0462,-0.0445,-0.0445,-0.0445,-0.0445,0,0,0,0,0,0,0,-0.0441,-0.0444,-0.0471,-0.0459,-0.0458,-0.0459,-0.046,-0.0463,-0.0464,-0.0467,-0.0466,-0.0467,-0.0449,-0.0457,-0.0456,-0.0461,-0.0445,-0.0445,-0.0445,-0.0445,-0.0461,-0.0461,0,0,0,0,0,0,-0.0437,-0.0442,-0.047,-0.0471,-0.0446,-0.046,-0.0462,-0.0469,-0.0465,-0.0463,-0.0468,-0.0466,-0.0458,-0.0457,-0.0455,-0.0455,-0.0445,-0.0445,-0.0444,-0.0461,-0.0461,-0.0462,0,0,0,0,0,0,-0.0436,-0.0439,-0.0469,-0.0456,-0.0459,-0.0461,-0.047,-0.047,-0.0473,-0.0465,-0.0463,-0.047,-0.0457,-0.0456,-0.0449,-0.0455,-0.0444,-0.0444,-0.046,-0.0461,-0.0461,-0.0469,0,0,0,0,0,0,-0.0435,-0.0439,-0.0446,-0.0456,-0.046,-0.0474,-0.0471,-0.0471,-0.0475,-0.0473,-0.0466,-0.0463,-0.0456,-0.0449,-0.0449,-0.0454,-0.0444,-0.0459,-0.046,-0.0461,-0.0468,-0.047,-0.0471,0,0,0,0,0,-0.0434,-0.0442,-0.0446,-0.045,-0.0469,-0.0474,-0.0476,-0.0475,-0.0476,-0.0475,-0.047,-0.0463,-0.0455,-0.0449,-0.0449,-0.0455,-0.0459,-0.046,-0.0461,-0.0467,-0.0469,-0.0471,0,0,0,0,0,0,-0.0431,-0.0442,-0.0447,-0.0459,-0.0463,-0.0471,-0.0471,-0.0477,-0.0476,-0.0471,-0.0467,-0.0464,-0.0461,-0.046,-0.0454,-0.0463,-0.0457,-0.0458,-0.0462,-0.0464,-0.0466,-0.044,-0.0444,0,0,0,0,0,-0.0435,-0.0445,-0.0452,-0.0463,-0.046,-0.0469,-0.0472,-0.0472,-0.0472,-0.0471,-0.0471,-0.0469,-0.0469,-0.0466,-0.0465,-0.047,-0.0439,-0.0475,-0.0476,-0.0478,-0.0457,-0.0431,-0.0427,-0.0465,-0.0465,-0.0465,0,0,-0.0437,-0.0446,-0.0451,-0.0463,-0.0464,-0.0458,-0.0468,-0.0468,-0.0465,-0.0469,-0.0466,-0.0473,-0.0472,-0.0474,-0.0473,-0.047,-0.045,-0.0479,-0.048,-0.0458,-0.0431,-0.0427,-0.0424,-0.0466,-0.0466,-0.0466,0,0,-0.0437,-0.0451,-0.0451,-0.0451,-0.0452,-0.0454,-0.0454,-0.0461,-0.0462,-0.0465,-0.0468,-0.0475,-0.0478,-0.0478,-0.0478,-0.0489,-0.0459,-0.0498,-0.0483,-0.0459,-0.0455,-0.0451,-0.0398,-0.0389,-0.0499,-0.0499,-0.0499,0,-0.0437,-0.0436,-0.0451,-0.0445,-0.0437,-0.045,-0.0435,-0.0444,-0.0452,-0.0449,-0.0458,-0.0467,-0.0476,-0.0471,-0.048,-0.0491,-0.0459,-0.0476,-0.0459,-0.0454,-0.045,-0.0396,-0.0387,-0.0499,-0.0499,-0.0499,-0.0499,0,-0.0426,-0.0424,-0.042,-0.0415,-0.0415,-0.0404,-0.041,-0.0413,-0.0422,-0.0429,-0.043,-0.0449,-0.0446,-0.0468,-0.0477,-0.0463,-0.0443,-0.0463,-0.0449,-0.0446,-0.039,-0.038,-0.05,-0.05,-0.05,-0.05,0,0,-0.0418,-0.0412,-0.0407,-0.0392,-0.0392,-0.0385,-0.0383,-0.0375,-0.0357,-0.0388,-0.0364,-0.0403,-0.0414,-0.0414,-0.0437,-0.0431,-0.039,-0.0435,-0.0433,-0.0372,-0.0304,-0.0268,-0.0253,-0.0405,-0.0404,-0.0403,-0.0273,0,-0.0394,-0.0371,-0.0377,-0.0347,-0.0328,-0.0335,-0.0325,-0.0327,-0.0328,-0.0312,-0.0344,-0.033,-0.0393,-0.0383,-0.0394,-0.0377,-0.0364,-0.0421,-0.0324,-0.032,-0.0281,-0.0241,-0.0228,-0.0109,-0.0262,-0.0261,-0.0259,0,-0.0366,-0.0354,-0.0319,-0.0295,-0.0285,-0.0273,-0.0241,-0.0233,-0.0225,-0.0224,-0.0233,-0.0245,-0.024,-0.0295,-0.0267,-0.0296,-0.0298,-0.0298,-0.0293,-0.0245,-0.0264,-0.014,-0.0084,-0.0184,-0.0243,-0.0244,-0.0246,0,-0.0331,-0.0308,-0.0275,-0.0266,-0.0246,-0.0229,-0.0216,-0.0204,-0.0169,-0.0155,-0.0113,-0.0137,-0.0099,-0.0129,-0.0134,-0.0192,-0.0078,-0.0158,-0.0126,-0.0123,-0.0082,-0.0077,-0.01,-0.0135,-0.0135,-0.0135,-0.0136,0,-0.0294,-0.0269,-0.0253,-0.0232,-0.0179,-0.0186,-0.0125,-0.0118,-0.0077,0.0001,-0.0056,0.0022,-0.0054,-0.0007,-0.0063,-0.0025,-0.0016,-0.0092,-0.0082,-0.0084,-0.0082,-0.0144,-0.0213,-0.013,-0.0132,-0.0132,-0.0133,0,-0.026,-0.0252,-0.0205,-0.0173,-0.0157,-0.0117,-0.0055,-0.0005,0.0022,0.0131,0.0152,0.0181,0.0255,0.0201,0.0206,0.0112,0.0072,0.0116,0.0136,0.0144,0.0027,-0.0043,-0.0011,-0.0065,0.0154,0.0155,0.0157,0,-0.0234,-0.0208,-0.015,-0.0106,-0.0086,-0.0031,0.002,0.0046,0.0118,0.0253,0.0329,0.0421,0.0532,0.0553,0.0418,0.0365,0.0215,0.0289,0.0151,0.0055,-0.0016,-0.008,-0.0136,0.0209,0.0211,0.0213,0.0214,0,-0.0177,-0.0156,-0.0114,-0.003,0.0032,0.0106,0.0183,0.0257,0.0333,0.0457,0.0652,0.076,0.078,0.0766,0.0653,0.0548,0.0208,0.0315,0.0206,0.0033,-0.0027,-0.0085,0.0102,0.0227,0.0225,0.0224,0.0224,0.0223,-0.0118,-0.0078,-0.0017,0.0061,0.0138,0.0248,0.0336,0.0454,0.0618,0.0846,0.0916,0.1142,0.1004,0.0867,0.0731,0.0389,0.0344,0.0244,0.0177,0.0127,0.0041,0.0276,0.0404,0.0403,0.0403,0.0403,0.0403,0,-0.0042,-0.0008,0.007,0.0174,0.0274,0.0296,0.0454,0.0576,0.081,0.1059,0.127,0.1347,0.1203,0.0937,0.05,0.0287,0.0134,0.0139,0.002,-0.0029,0.0187,0.015,0.0241,0.0241,0.0241,0.0241,0.0241,0.0241,0.0006,0.0078,0.0103,0.027,0.0352,0.0509,0.0613,0.0818,0.1022,0.1339,0.1513,0.1633,0.1368,0.0674,0.0212,0.0086,-0.0114,-0.0113,-0.022,-0.0116,-0.0114,-0.0112,-0.0164,-0.014,-0.0141,-0.043,-0.0433,-0.0435]}],[{"header":{"parameterUnit":"m.s-1","parameterCategory":2,"la1":30.2991,"la2":30.254,"lo1":-89.0895,"lo2":-89.0444,"dy":0.0017,"dx":0.0017,"nx":28,"ny":28,"refTime":"2024-12-16T09:00:00:Z","depth":"2","parameterNumber":2,"parameterNumberName":"U-component_of_CURRENTS"},"data":[0,0,0,0,0,0,0,0,0,0,0,0,0,0,0,0,0,0,0,0,0,0,0,0,0,0,0,0,0,0,0,0,0,0,0,0,0,0,0,0,0,0,0,0,0,0,0,0,0,0,0,0,0,0,0,0,0,0,0.2247,0.2247,0,0.2285,0.2286,0.2287,0.2314,0.2314,0.2314,0.2314,0.2308,0.2308,0.2308,0,0,0,0,0,0,0,0,0,0,0,0,0,0.2268,0.2267,0.2247,0.2247,0.2247,0.2285,0.2286,0.2287,0.2314,0.2314,0.2314,0.2314,0.2308,0.2308,0.2308,0,0,0,0,0,0,0,0,0,0,0,0,0,0.228,0.2267,0.2247,0.2264,0.2266,0.2285,0.2286,0.2287,0.2314,0.2314,0.2314,0.2314,0.2308,0.2308,0.2308,0.2305,0,0,0.2307,0.2307,0,0,0,0,0,0,0,0,0.2279,0.2279,0.2261,0.2263,0.2265,0.2293,0.2291,0.229,0.2314,0.2298,0.2314,0.2314,0.2298,0.2298,0.2309,0.2305,0.2304,0.2307,0.2307,0.2307,0.2307,0,0,0,0,0,0,0,0.2278,0.2278,0.2264,0.2262,0.2264,0.2294,0.2296,0.2292,0.2298,0.23,0.2301,0.2302,0.2299,0.2309,0.2309,0.2304,0.2307,0.2307,0.2307,0.2306,0.2338,0.2339,0,0,0,0,0,0,0.2265,0.2277,0.2263,0.2265,0.227,0.2293,0.2295,0.2286,0.2299,0.2301,0.2302,0.2303,0.231,0.2309,0.2309,0.2357,0.2307,0.2306,0.2306,0.2337,0.2338,0.2339,0,0,0,0,0,0,0.2265,0.2263,0.2261,0.2271,0.2273,0.2292,0.2282,0.2287,0.2305,0.2301,0.2302,0.2317,0.231,0.2309,0.2305,0.2355,0.2306,0.2306,0.2336,0.2337,0.2339,0.2421,0,0,0,0,0,0,0.2265,0.2263,0.2273,0.227,0.2271,0.2272,0.2282,0.2287,0.2304,0.2306,0.2313,0.2313,0.231,0.2306,0.2305,0.2354,0.2306,0.2335,0.2337,0.2338,0.2417,0.2425,0.2432,0,0,0,0,0,0.2266,0.2273,0.2273,0.2273,0.2278,0.2272,0.2276,0.2293,0.2305,0.2311,0.2313,0.2313,0.2318,0.2305,0.2305,0.2355,0.2334,0.2336,0.2338,0.2414,0.2424,0.2432,0,0,0,0,0,0,0.2286,0.2276,0.2276,0.228,0.2275,0.2276,0.2294,0.2297,0.2308,0.2324,0.2311,0.231,0.2338,0.232,0.2306,0.2368,0.2332,0.2334,0.239,0.2399,0.2407,0.2402,0.2306,0,0,0,0,0,0.2293,0.2292,0.2285,0.2283,0.2289,0.2293,0.2302,0.2313,0.2313,0.232,0.2321,0.233,0.2346,0.2349,0.2358,0.2373,0.2372,0.2408,0.2416,0.2422,0.2417,0.2455,0.2466,0.2347,0.2347,0.2347,0,0,0.2297,0.2292,0.2292,0.2287,0.2293,0.2303,0.23,0.2319,0.2334,0.2316,0.2344,0.2357,0.2356,0.2389,0.24,0.238,0.2458,0.2425,0.2431,0.2422,0.2459,0.247,0.2481,0.2348,0.2348,0.2348,0,0,0.2302,0.2303,0.2311,0.2313,0.2326,0.2327,0.233,0.2343,0.2362,0.2381,0.2388,0.2417,0.2426,0.2444,0.2452,0.2498,0.2501,0.2513,0.2545,0.2583,0.2594,0.2603,0.2629,0.264,0.2513,0.2513,0.2513,0,0.2319,0.2313,0.2312,0.2324,0.2333,0.2334,0.2351,0.2367,0.2377,0.2403,0.2399,0.2455,0.2457,0.2503,0.2525,0.252,0.2533,0.2515,0.2595,0.2604,0.2612,0.2636,0.2647,0.2517,0.2517,0.2516,0.2516,0,0.2317,0.2333,0.2337,0.2347,0.2359,0.2371,0.2388,0.2415,0.244,0.2461,0.2522,0.2529,0.2561,0.258,0.2565,0.2632,0.2622,0.2607,0.2576,0.2629,0.2651,0.2661,0.2523,0.2522,0.252,0.2519,0,0,0.2319,0.2334,0.2344,0.2349,0.2378,0.2376,0.2425,0.246,0.2492,0.2536,0.2581,0.263,0.2651,0.2658,0.2662,0.2687,0.2763,0.2672,0.2672,0.2703,0.2846,0.2751,0.2752,0.2769,0.2771,0.2773,0.2844,0,0.2325,0.2339,0.2357,0.2376,0.2383,0.2417,0.2443,0.2489,0.2533,0.2577,0.263,0.2672,0.2675,0.27,0.2735,0.2755,0.2789,0.2744,0.2782,0.2783,0.2698,0.2761,0.2523,0.2559,0.2853,0.2855,0.2856,0,0.2325,0.2335,0.2351,0.2378,0.2389,0.2407,0.2462,0.2499,0.258,0.2624,0.27,0.2723,0.2791,0.2769,0.2854,0.2828,0.2844,0.2852,0.2855,0.2739,0.2706,0.2549,0.2565,0.2872,0.2871,0.2869,0.2868,0,0.2303,0.2335,0.2338,0.2346,0.2378,0.2412,0.245,0.2526,0.2573,0.2669,0.2712,0.2789,0.2843,0.2877,0.2905,0.2891,0.2975,0.2959,0.289,0.2884,0.2671,0.2642,0.3012,0.3012,0.3011,0.3011,0.3011,0,0.2287,0.2299,0.2324,0.2331,0.2351,0.2398,0.2451,0.2513,0.2603,0.2656,0.2739,0.2783,0.2874,0.2923,0.2931,0.2943,0.3009,0.2904,0.2899,0.2693,0.2666,0.2919,0.2907,0.3014,0.3013,0.3013,0.3012,0,0.225,0.2268,0.2278,0.2321,0.234,0.2365,0.2459,0.249,0.2595,0.267,0.2704,0.2821,0.2887,0.2938,0.3004,0.2979,0.2986,0.2968,0.2714,0.2677,0.2866,0.2858,0.2911,0.2908,0.2906,0.2904,0.2903,0,0.2224,0.221,0.2264,0.2274,0.2297,0.2347,0.2375,0.2487,0.2525,0.2671,0.2688,0.28,0.2821,0.2891,0.2875,0.2875,0.2947,0.2653,0.2574,0.2867,0.2858,0.2853,0.2848,0.2338,0.2332,0.2327,0.2323,0,0.2165,0.2182,0.22,0.2218,0.2246,0.2278,0.2339,0.2357,0.2475,0.2507,0.2561,0.2595,0.2696,0.2592,0.262,0.2589,0.2631,0.255,0.2935,0.2392,0.233,0.232,0.2333,0.2279,0.2283,0.2286,0.2289,0.229,0.2128,0.2123,0.214,0.215,0.2187,0.2198,0.2175,0.2208,0.2221,0.2242,0.2358,0.2335,0.2393,0.231,0.2233,0.2202,0.2396,0.2281,0.2295,0.2315,0.2228,0.2164,0.2065,0.2068,0.2071,0.2074,0.2076,0,0.2045,0.2059,0.2064,0.2078,0.2057,0.2121,0.2125,0.205,0.1982,0.2033,0.2032,0.1868,0.1807,0.1882,0.176,0.1756,0.1736,0.1682,0.163,0.1676,0.1716,0.1597,0.1268,0.1266,0.1263,0.1261,0,0,0.2018,0.1996,0.1998,0.1945,0.1946,0.1881,0.1853,0.1756,0.1735,0.1621,0.1596,0.1731,0.1818,0.1515,0.1471,0.1345,0.1498,0.1289,0.1941,0.1925,0.1962,0.207,0.1939,0,0,0,0,0]},{"header":{"parameterUnit":"m.s-1","parameterCategory":2,"la1":30.2991,"la2":30.254,"lo1":-89.0895,"lo2":-89.0444,"dy":0.0017,"dx":0.0017,"nx":28,"ny":28,"refTime":"2024-12-16T09:00:00:Z","depth":"2","parameterNumber":3,"parameterNumberName":"V-component_of_CURRENTS"},"data":[0,0,0,0,0,0,0,0,0,0,0,0,0,0,0,0,0,0,0,0,0,0,0,0,0,0,0,0,0,0,0,0,0,0,0,0,0,0,0,0,0,0,0,0,0,0,0,0,0,0,0,0,0,0,0,0,0,0,0.0272,0.0272,0,0.0275,0.0274,0.0274,0.0246,0.0245,0.0245,0.0244,0.0223,0.0223,0.0223,0,0,0,0,0,0,0,0,0,0,0,0,0,0.0222,0.0223,0.0272,0.0272,0.0273,0.0275,0.0274,0.0274,0.0246,0.0245,0.0244,0.0244,0.0223,0.0223,0.0223,0,0,0,0,0,0,0,0,0,0,0,0,0,0.0234,0.0224,0.0272,0.0261,0.026,0.0275,0.0274,0.0274,0.0246,0.0245,0.0244,0.0243,0.0223,0.0223,0.0223,0.0239,0,0,0.0223,0.0223,0,0,0,0,0,0,0,0,0.0233,0.0236,0.0262,0.0261,0.0261,0.0261,0.0249,0.0262,0.0246,0.0249,0.0244,0.0243,0.0236,0.0235,0.0234,0.0238,0.0238,0.0223,0.0223,0.0223,0.0223,0,0,0,0,0,0,0,0.0233,0.0235,0.0271,0.0262,0.0262,0.0248,0.0249,0.0251,0.0245,0.0248,0.0247,0.0251,0.0235,0.0234,0.0233,0.0237,0.0223,0.0223,0.0223,0.0223,0.0239,0.024,0,0,0,0,0,0,0.024,0.0235,0.0271,0.0271,0.0248,0.025,0.0251,0.026,0.0245,0.0243,0.0252,0.025,0.0235,0.0233,0.0232,0.0247,0.0223,0.0223,0.0223,0.0239,0.0239,0.024,0,0,0,0,0,0,0.0239,0.0243,0.027,0.0254,0.0257,0.0252,0.0262,0.026,0.0258,0.0249,0.0245,0.0252,0.0234,0.0233,0.0238,0.0246,0.0223,0.0223,0.0238,0.0239,0.024,0.0279,0,0,0,0,0,0,0.0237,0.0243,0.0247,0.0255,0.0259,0.0286,0.0263,0.0261,0.0263,0.026,0.0248,0.0245,0.0233,0.0238,0.0238,0.0246,0.0223,0.0238,0.0239,0.0239,0.0277,0.0281,0.0284,0,0,0,0,0,0.0236,0.0251,0.0247,0.0252,0.0266,0.0287,0.0288,0.0279,0.0264,0.0271,0.026,0.0245,0.0243,0.0239,0.0239,0.0246,0.0237,0.0238,0.0239,0.0276,0.028,0.0284,0,0,0,0,0,0,0.0231,0.025,0.0246,0.0266,0.0277,0.0283,0.0287,0.0283,0.028,0.0273,0.0257,0.0254,0.0259,0.025,0.0246,0.0253,0.0236,0.0237,0.0263,0.0268,0.0271,0.0286,0.0223,0,0,0,0,0,0.0234,0.0252,0.0264,0.0282,0.0285,0.0285,0.029,0.0289,0.029,0.0287,0.0278,0.0268,0.0265,0.0264,0.0259,0.027,0.0253,0.0272,0.0276,0.0279,0.0291,0.0277,0.028,0.0243,0.0243,0.0243,0,0,0.0239,0.0252,0.0262,0.0282,0.0285,0.0308,0.0285,0.0299,0.0318,0.0287,0.03,0.0281,0.027,0.0277,0.0279,0.0271,0.0278,0.0281,0.0283,0.0293,0.0278,0.0282,0.0285,0.0244,0.0244,0.0244,0,0,0.0268,0.0266,0.0292,0.0303,0.0318,0.0322,0.0329,0.0335,0.0333,0.0349,0.0325,0.0315,0.0315,0.0307,0.0303,0.0326,0.0296,0.0319,0.0352,0.0338,0.0341,0.0343,0.0314,0.0313,0.0322,0.0322,0.0322,0,0.0269,0.0307,0.0303,0.033,0.0345,0.0333,0.0365,0.0367,0.0376,0.0381,0.0359,0.035,0.0332,0.0344,0.0344,0.0335,0.0316,0.0336,0.0343,0.0345,0.0347,0.0316,0.0315,0.0324,0.0324,0.0323,0.0323,0,0.0324,0.0346,0.0361,0.0393,0.0408,0.0432,0.0438,0.0446,0.0437,0.0439,0.0441,0.0412,0.0407,0.0393,0.0375,0.0381,0.0359,0.0347,0.0333,0.0353,0.0319,0.0317,0.0327,0.0326,0.0325,0.0325,0,0,0.0344,0.0391,0.0394,0.042,0.0442,0.0465,0.049,0.0516,0.054,0.052,0.0542,0.0514,0.0485,0.0478,0.0446,0.0429,0.041,0.0395,0.0393,0.0367,0.0368,0.0339,0.0333,0.0399,0.0399,0.0399,0.0334,0,0.0385,0.0451,0.0462,0.0521,0.0554,0.055,0.0582,0.0599,0.0601,0.0616,0.0573,0.0578,0.0522,0.0514,0.0487,0.0438,0.041,0.0428,0.0351,0.0349,0.0322,0.0332,0.0351,0.0293,0.0332,0.0332,0.0331,0,0.0434,0.0474,0.054,0.0594,0.0607,0.0637,0.0682,0.0713,0.0723,0.0722,0.0706,0.0669,0.0636,0.0584,0.0504,0.0517,0.0446,0.0398,0.0394,0.0356,0.0317,0.0282,0.0288,0.0328,0.0328,0.0329,0.0329,0,0.0463,0.0526,0.0583,0.0601,0.0659,0.0682,0.0712,0.0741,0.0784,0.0786,0.0802,0.0752,0.0734,0.0644,0.0525,0.0517,0.0432,0.0408,0.0313,0.0309,0.0305,0.0301,0.035,0.035,0.035,0.035,0.0351,0,0.0509,0.0552,0.06,0.0632,0.0703,0.0724,0.0798,0.0818,0.0862,0.0925,0.0855,0.0877,0.0749,0.0677,0.0557,0.043,0.0452,0.0323,0.0296,0.0317,0.0315,0.0334,0.0333,0.0348,0.0348,0.0349,0.0349,0,0.054,0.057,0.0639,0.07,0.0721,0.0774,0.0859,0.0916,0.0943,0.1018,0.1019,0.0979,0.0884,0.0736,0.0597,0.0483,0.0356,0.0301,0.0324,0.0301,0.023,0.0232,0.0194,0.0193,0.0192,0.0191,0.019,0,0.0571,0.0609,0.0683,0.073,0.0759,0.0836,0.0895,0.0952,0.1024,0.1086,0.1126,0.1055,0.1016,0.0784,0.0578,0.0363,0.0338,0.0235,0.0222,0.024,0.0217,0.0221,0.0224,0.0223,0.0222,0.0222,0.0221,0,0.0626,0.0642,0.0693,0.0785,0.085,0.0937,0.1024,0.1094,0.1175,0.1221,0.1273,0.1241,0.1037,0.0828,0.0535,0.0394,0.027,0.0219,0.0244,0.0261,0.0261,0.0241,0.0244,0.0218,0.0218,0.0218,0.0218,0.0219,0.066,0.0698,0.0756,0.0846,0.0925,0.1026,0.1094,0.1189,0.129,0.1357,0.1357,0.1292,0.1097,0.0702,0.048,0.0235,0.0247,0.0153,0.0157,0.016,0.0177,0.0176,0.0118,0.0117,0.0117,0.0117,0.0117,0,0.0701,0.0741,0.0819,0.0919,0.1003,0.1042,0.1173,0.1228,0.1328,0.1374,0.1391,0.1169,0.0959,0.0717,0.0361,0.0161,0.0156,0.0088,0.0132,0.0137,0.0141,0.0158,0.0093,0.0092,0.0092,0.0091,0,0,0.072,0.0787,0.082,0.0958,0.1032,0.1128,0.1195,0.1267,0.1314,0.1319,0.1279,0.1251,0.0994,0.0731,0.0475,0.0276,0.0245,0.0233,0.0273,0.036,0.0367,0.02,0.0235,0,0,0,0,0]}],[{"header":{"parameterUnit":"m.s-1","parameterCategory":2,"la1":30.2991,"la2":30.254,"lo1":-89.0895,"lo2":-89.0444,"dy":0.0017,"dx":0.0017,"nx":28,"ny":28,"refTime":"2024-12-16T09:00:00:Z","depth":"4","parameterNumber":2,"parameterNumberName":"U-component_of_CURRENTS"},"data":[0,0,0,0,0,0,0,0,0,0,0,0,0,0,0,0,0,0,0,0,0,0,0,0,0,0,0,0,0,0,0,0,0,0,0,0,0,0,0,0,0,0,0,0,0,0,0,0,0,0,0,0,0,0,0,0,0,0,0.1263,0.1263,0,0.1298,0.1298,0.1298,0.1351,0.1352,0.1353,0.1353,0.1429,0.143,0.1431,0,0,0,0,0,0,0,0,0,0,0,0,0,0.1218,0.1219,0.1263,0.1263,0.1264,0.1298,0.1298,0.1299,0.1351,0.1352,0.1353,0.1354,0.1429,0.143,0.1431,0,0,0,0,0,0,0,0,0,0,0,0,0,0.1244,0.1219,0.1263,0.1293,0.1296,0.1297,0.1298,0.1299,0.135,0.1352,0.1353,0.1354,0.1428,0.143,0.1432,0.1416,0,0,0.1437,0.1438,0,0,0,0,0,0,0,0,0.1242,0.1245,0.1288,0.1291,0.1295,0.1321,0.131,0.134,0.135,0.133,0.1353,0.1355,0.1395,0.14,0.1403,0.1419,0.1422,0.1437,0.1438,0.1439,0.144,0,0,0,0,0,0,0,0.124,0.1244,0.1277,0.1289,0.1293,0.1297,0.1303,0.1316,0.1356,0.1332,0.1336,0.1339,0.1398,0.1402,0.1406,0.1424,0.1437,0.1439,0.144,0.1441,0.1537,0.1538,0,0,0,0,0,0,0.1235,0.1242,0.1276,0.1278,0.1271,0.1297,0.1303,0.1311,0.1355,0.1362,0.1338,0.1341,0.1398,0.1404,0.1409,0.1484,0.1439,0.1441,0.1442,0.1536,0.1537,0.1539,0,0,0,0,0,0,0.1234,0.1238,0.1274,0.126,0.1265,0.1297,0.1305,0.1311,0.1342,0.1359,0.1367,0.1365,0.1399,0.1406,0.1452,0.1484,0.1442,0.1443,0.1534,0.1536,0.1538,0.1576,0,0,0,0,0,0,0.1233,0.1238,0.1252,0.126,0.1266,0.1292,0.1304,0.1311,0.134,0.1346,0.1384,0.1391,0.1401,0.1449,0.1454,0.1486,0.1444,0.1532,0.1535,0.1537,0.1573,0.1579,0.1585,0,0,0,0,0,0.1231,0.1238,0.1253,0.1257,0.1282,0.1292,0.1296,0.1322,0.134,0.1355,0.139,0.1392,0.1471,0.1452,0.1456,0.149,0.153,0.1534,0.1537,0.157,0.1578,0.1585,0,0,0,0,0,0,0.123,0.1244,0.1261,0.1274,0.1292,0.1302,0.1319,0.1334,0.137,0.1389,0.1405,0.1415,0.1469,0.1472,0.1451,0.1527,0.1503,0.1507,0.1526,0.1534,0.154,0.154,0.1446,0,0,0,0,0,0.1235,0.1245,0.1261,0.1275,0.1288,0.1309,0.1321,0.134,0.1365,0.1384,0.1413,0.1448,0.148,0.1502,0.1528,0.1562,0.1569,0.159,0.1596,0.1601,0.1606,0.1644,0.1653,0.155,0.155,0.155,0,0,0.1239,0.1248,0.1256,0.1276,0.1296,0.1313,0.1321,0.1348,0.1373,0.1386,0.1441,0.147,0.1495,0.1543,0.1567,0.1553,0.1634,0.1605,0.1609,0.1612,0.1648,0.1658,0.1667,0.1552,0.1552,0.1552,0,0,0.124,0.1264,0.1272,0.129,0.1319,0.1331,0.1344,0.1373,0.1404,0.1449,0.1473,0.1521,0.1566,0.1593,0.161,0.1662,0.1665,0.1677,0.1708,0.1744,0.1753,0.1761,0.178,0.1789,0.1679,0.1679,0.1679,0,0.1249,0.1261,0.1278,0.1293,0.1311,0.1342,0.1362,0.1389,0.1433,0.1466,0.1477,0.1569,0.1589,0.1647,0.1671,0.1675,0.1693,0.1676,0.1752,0.1759,0.1766,0.1784,0.1794,0.1681,0.1681,0.1681,0.1681,0,0.1249,0.1273,0.1282,0.1312,0.1334,0.1357,0.1394,0.1433,0.1475,0.1508,0.1588,0.1622,0.1679,0.1695,0.1701,0.1767,0.1763,0.1754,0.173,0.1779,0.1795,0.1804,0.1684,0.1684,0.1683,0.1682,0,0,0.1235,0.1274,0.1283,0.1302,0.135,0.1364,0.1417,0.1469,0.1514,0.1576,0.1637,0.1703,0.1739,0.1761,0.1781,0.1812,0.1875,0.1811,0.1812,0.1824,0.1956,0.1818,0.1815,0.1887,0.1888,0.189,0.1945,0,0.1237,0.1261,0.1286,0.1323,0.134,0.1391,0.1433,0.1491,0.1551,0.1618,0.168,0.1749,0.1759,0.1799,0.1836,0.1871,0.1902,0.1861,0.1912,0.1913,0.178,0.1822,0.1896,0.1952,0.1954,0.1955,0.1957,0,0.1228,0.1247,0.1278,0.1329,0.1345,0.1378,0.1459,0.1505,0.1604,0.1657,0.1743,0.1794,0.1874,0.1864,0.1955,0.1934,0.1953,0.1967,0.1969,0.1833,0.1792,0.1895,0.1973,0.1972,0.197,0.1969,0.1968,0,0.1194,0.1242,0.1266,0.1284,0.1346,0.1385,0.1434,0.1527,0.158,0.1696,0.175,0.1848,0.1913,0.1959,0.2007,0.1994,0.2085,0.2063,0.1956,0.1947,0.2037,0.2028,0.2118,0.2118,0.2118,0.2118,0.2118,0,0.1167,0.1192,0.1257,0.127,0.1316,0.1374,0.1446,0.151,0.1611,0.167,0.1777,0.1832,0.1944,0.2009,0.203,0.2022,0.2111,0.1966,0.1954,0.2051,0.2043,0.2043,0.2033,0.212,0.212,0.2119,0.2119,0,0.1119,0.116,0.1194,0.1269,0.1299,0.1339,0.1448,0.149,0.16,0.168,0.1723,0.1853,0.193,0.2011,0.2089,0.2039,0.2047,0.2021,0.2124,0.2116,0.1877,0.1869,0.1896,0.1891,0.1888,0.1885,0.1882,0,0.1087,0.1099,0.1187,0.121,0.125,0.1322,0.1363,0.1477,0.1523,0.1669,0.169,0.1815,0.1886,0.189,0.1981,0.2009,0.1988,0.1974,0.1915,0.1869,0.1856,0.1854,0.1851,0.1876,0.1875,0.1874,0.1873,0,0.1029,0.1077,0.111,0.116,0.1206,0.1247,0.1322,0.1344,0.1463,0.1577,0.1617,0.166,0.1742,0.1803,0.1847,0.1861,0.197,0.1935,0.1942,0.1886,0.1846,0.1836,0.1837,0.186,0.1862,0.1864,0.1864,0,0.0998,0.1009,0.106,0.1095,0.1142,0.1145,0.1201,0.1243,0.1301,0.1455,0.1465,0.1592,0.1715,0.1727,0.1764,0.1772,0.174,0.1671,0.1691,0.1706,0.162,0.1539,0.1452,0,0,0,0,0,0.0957,0.0958,0.0984,0.1006,0.1044,0.1071,0.115,0.1205,0.1324,0.1305,0.1379,0.1441,0.1494,0.1569,0.1541,0.1686,0.1752,0.1645,0.1683,0.179,0.1804,0.172,0,0,0,0,0,0,0.0927,0.0953,0.0957,0.0918,0.0914,0.0939,0.0983,0.1063,0.1066,0.1197,0.1242,0.134,0.1429,0.1496,0.151,0.1532,0.1521,0.1731,0.1726,0.1781,0.1795,0.1807,0.1725,0,0,0,0,0]},{"header":{"parameterUnit":"m.s-1","parameterCategory":2,"la1":30.2991,"la2":30.254,"lo1":-89.0895,"lo2":-89.0444,"dy":0.0017,"dx":0.0017,"nx":28,"ny":28,"refTime":"2024-12-16T09:00:00:Z","depth":"4","parameterNumber":3,"parameterNumberName":"V-component_of_CURRENTS"},"data":[0,0,0,0,0,0,0,0,0,0,0,0,0,0,0,0,0,0,0,0,0,0,0,0,0,0,0,0,0,0,0,0,0,0,0,0,0,0,0,0,0,0,0,0,0,0,0,0,0,0,0,0,0,0,0,0,0,0,0.0279,0.0279,0,0.0294,0.0294,0.0294,0.029,0.0289,0.0289,0.0289,0.029,0.029,0.0291,0,0,0,0,0,0,0,0,0,0,0,0,0,0.0237,0.0238,0.0279,0.0279,0.0279,0.0294,0.0294,0.0294,0.029,0.0289,0.0289,0.0289,0.029,0.029,0.0291,0,0,0,0,0,0,0,0,0,0,0,0,0,0.0254,0.0238,0.0279,0.0279,0.0279,0.0294,0.0294,0.0294,0.029,0.0289,0.0289,0.0289,0.029,0.029,0.0291,0.0302,0,0,0.0292,0.0292,0,0,0,0,0,0,0,0,0.0253,0.0255,0.0279,0.0279,0.0279,0.029,0.028,0.0296,0.029,0.0285,0.0289,0.0288,0.0289,0.029,0.0293,0.0302,0.0302,0.0292,0.0292,0.0293,0.0293,0,0,0,0,0,0,0,0.0251,0.0254,0.0284,0.0279,0.0279,0.0275,0.0277,0.0283,0.0289,0.0286,0.0286,0.0288,0.0289,0.0293,0.0293,0.0302,0.0292,0.0292,0.0293,0.0293,0.0318,0.0319,0,0,0,0,0,0,0.0252,0.0253,0.0284,0.0285,0.0265,0.0277,0.0279,0.0286,0.0289,0.0289,0.0288,0.0288,0.0292,0.0293,0.0293,0.0318,0.0293,0.0293,0.0293,0.0318,0.0318,0.0319,0,0,0,0,0,0,0.0251,0.0254,0.0283,0.0269,0.0273,0.0278,0.0287,0.0287,0.0294,0.0291,0.0291,0.0295,0.0292,0.0292,0.0304,0.0317,0.0293,0.0294,0.0317,0.0318,0.0318,0.0359,0,0,0,0,0,0,0.025,0.0254,0.0262,0.027,0.0273,0.0297,0.0287,0.0288,0.0296,0.0296,0.0297,0.0297,0.0292,0.0303,0.0304,0.0317,0.0294,0.0317,0.0318,0.0318,0.0357,0.0361,0.0364,0,0,0,0,0,0.0248,0.0264,0.0263,0.0266,0.0284,0.0298,0.03,0.0301,0.0297,0.0305,0.0306,0.0297,0.0309,0.0305,0.0305,0.0319,0.0316,0.0317,0.0318,0.0356,0.036,0.0364,0,0,0,0,0,0,0.0251,0.0266,0.0264,0.0284,0.0291,0.0297,0.0306,0.0306,0.0314,0.0315,0.0307,0.0307,0.032,0.0314,0.0309,0.0327,0.0309,0.0311,0.0338,0.0342,0.0345,0.035,0.0294,0,0,0,0,0,0.0256,0.0272,0.0279,0.0296,0.0299,0.0303,0.0309,0.0313,0.0319,0.0321,0.0321,0.0321,0.0325,0.0329,0.033,0.0344,0.032,0.0351,0.0355,0.0358,0.0361,0.0337,0.0339,0.0322,0.0322,0.0322,0,0,0.026,0.0272,0.028,0.0297,0.0302,0.032,0.0306,0.0322,0.034,0.0321,0.0343,0.0335,0.0331,0.0346,0.0351,0.0342,0.0348,0.0359,0.0362,0.0364,0.0339,0.034,0.0342,0.0322,0.0322,0.0322,0,0,0.0283,0.0288,0.0309,0.0318,0.0332,0.0337,0.0343,0.0352,0.0358,0.0378,0.0366,0.0366,0.0377,0.0373,0.0374,0.0398,0.0367,0.0397,0.0421,0.0398,0.0399,0.04,0.0361,0.0358,0.0399,0.0399,0.0399,0,0.0288,0.0317,0.0317,0.0339,0.0352,0.0346,0.0372,0.038,0.0393,0.04,0.039,0.0396,0.0391,0.0404,0.0411,0.0407,0.0381,0.0407,0.0403,0.0403,0.0403,0.0363,0.036,0.0401,0.0401,0.0401,0.0401,0,0.0326,0.0348,0.0361,0.0388,0.0401,0.0422,0.0431,0.0443,0.0447,0.0451,0.0461,0.0448,0.0449,0.0446,0.0439,0.044,0.0417,0.0409,0.0393,0.0407,0.0364,0.036,0.0404,0.0404,0.0403,0.0402,0,0,0.034,0.038,0.0385,0.0406,0.043,0.0446,0.0474,0.0496,0.0516,0.0513,0.0528,0.0527,0.0508,0.0506,0.0488,0.0468,0.0443,0.0443,0.044,0.0405,0.0378,0.0349,0.034,0.0434,0.0434,0.0434,0.0343,0,0.0369,0.042,0.0434,0.0481,0.0506,0.0512,0.054,0.0558,0.0565,0.0576,0.0554,0.0563,0.0535,0.0535,0.051,0.0465,0.0434,0.0467,0.0368,0.0365,0.0338,0.0336,0.0433,0.034,0.0339,0.0338,0.0337,0,0.0402,0.0434,0.0486,0.0532,0.0543,0.0571,0.0609,0.0637,0.0646,0.0649,0.0641,0.0619,0.0594,0.0566,0.0487,0.0508,0.0447,0.0403,0.0398,0.0355,0.0328,0.0323,0.0328,0.0329,0.0329,0.033,0.0331,0,0.0414,0.047,0.0514,0.0529,0.0579,0.0604,0.0633,0.0659,0.069,0.0693,0.0702,0.0664,0.0648,0.0572,0.0479,0.0483,0.0377,0.0371,0.0281,0.0278,0.0312,0.0313,0.0307,0.0307,0.0307,0.0307,0.0307,0,0.0439,0.0475,0.0524,0.0549,0.0606,0.0632,0.069,0.0709,0.0741,0.0774,0.074,0.074,0.065,0.0579,0.0486,0.0365,0.0379,0.0281,0.0255,0.033,0.0333,0.0308,0.0309,0.0304,0.0304,0.0305,0.0306,0,0.0447,0.0479,0.0533,0.0592,0.0616,0.0658,0.0734,0.0773,0.0797,0.0834,0.0837,0.0798,0.0705,0.0594,0.0464,0.038,0.0265,0.0215,0.0291,0.0271,0.0176,0.0181,0.011,0.0108,0.0107,0.0106,0.0105,0,0.0457,0.0485,0.056,0.0598,0.0629,0.0697,0.0746,0.0798,0.084,0.0864,0.0877,0.0809,0.076,0.055,0.0435,0.0244,0.0218,0.0149,0.0174,0.0175,0.0157,0.0164,0.017,0.0102,0.0102,0.0102,0.0101,0,0.0471,0.0497,0.0538,0.0617,0.0677,0.0748,0.0818,0.0851,0.0905,0.0924,0.09,0.0801,0.0691,0.0542,0.0391,0.0258,0.0192,0.0133,0.0136,0.0158,0.0165,0.015,0.0158,0.0096,0.0097,0.0097,0.0098,0,0.0476,0.0504,0.0559,0.0628,0.0704,0.0773,0.0815,0.0859,0.0902,0.0924,0.0911,0.0801,0.0748,0.0548,0.0411,0.0275,0.0244,0.0196,0.0195,0.0199,0.0254,0.0277,0.0218,0,0,0,0,0,0.0478,0.0508,0.0568,0.0643,0.0719,0.0768,0.0852,0.0889,0.0933,0.0916,0.0918,0.0813,0.0619,0.0545,0.0402,0.0378,0.0215,0.0205,0.0159,0.0069,0.0074,0.0121,0,0,0,0,0,0,0.0477,0.0529,0.0557,0.0641,0.0694,0.0783,0.0838,0.0872,0.0868,0.0888,0.079,0.0759,0.0575,0.0692,0.0391,0.0354,0.0301,0.0125,0.0121,0.0065,0.007,0.0075,0.0125,0,0,0,0,0]}]]